Thorne Bay FAA Web Cam AK US FAA-ALASKA current weather conditions

sailwx.info

Wind from 278 at 2 knots

Air temperature 11.8° C
Dewpoint 8.8° C

Last reported at 2020-Aug-12 05:50 UTC.
Time now 2020-Aug-12 06:42 UTC

Location: N 55°41' W 132°32'.
View on Google Maps.

See reports from other nearby stations

  
Tides and Currents Weather Stations Pressure Air Temp Water Temp Dewpoint Dewpoint Depression Visibility Wind Speed Wind Dir Waves Ship Positions
date/time (UTC)wind fromknots sea level pressurealtimeterstation pressurevisibilityair tempwater tempwave heightnotes
2020-Aug-12 05:50 278 2 11.8
2020-Aug-12 05:40 285 4 11.9
2020-Aug-12 05:30 288 3 12.0
2020-Aug-12 05:20 287 3 12.2
2020-Aug-12 05:10 293 2 12.4
2020-Aug-12 05:00 291 4 12.7
2020-Aug-12 04:50 287 2 12.9
2020-Aug-12 04:40 290 2 13.1
2020-Aug-12 04:30 302 3 13.3
2020-Aug-12 04:20 307 3 13.5
2020-Aug-12 04:10 327 3 13.6
2020-Aug-12 04:00 306 1 13.8
2020-Aug-12 03:50 300 6 14.0
2020-Aug-12 03:40 304 6 14.3
2020-Aug-12 03:30 289 3 14.7
2020-Aug-12 03:20 292 3 15.0
2020-Aug-12 03:10 285 4 15.2
2020-Aug-12 03:00 283 4 15.3
2020-Aug-12 02:50 293 5 15.3
2020-Aug-12 02:40 295 7 15.1
2020-Aug-12 02:30 291 8 15.2
2020-Aug-12 02:20 278 5 15.5
2020-Aug-12 02:10 285 6 15.6
2020-Aug-12 02:00 288 5 15.4
2020-Aug-12 01:50 298 5 15.0
2020-Aug-12 01:40 290 1 14.7
2020-Aug-12 01:30 294 4 14.9
2020-Aug-12 01:20 290 6 15.1
2020-Aug-12 01:10 285 5 15.2
2020-Aug-12 01:00 268 2 15.3
2020-Aug-12 00:50 285 3 15.2
2020-Aug-12 00:40 298 3 15.2
2020-Aug-12 00:30 291 5 15.3
2020-Aug-12 00:20 286 6 15.4
2020-Aug-12 00:10 291 3 15.6
2020-Aug-12 00:00 289 5 15.4
2020-Aug-11 23:50 299 5 15.3
2020-Aug-11 23:40 294 6 15.3
2020-Aug-11 23:30 281 3 15.2
2020-Aug-11 23:20 286 3 14.9
2020-Aug-11 23:10 298 4 14.7
2020-Aug-11 23:00 293 4 14.4
2020-Aug-11 22:50 288 6 14.4
2020-Aug-11 22:40 303 4 14.1
2020-Aug-11 22:30 179 1 13.9
2020-Aug-11 22:20 150 5 13.7
2020-Aug-11 22:10 155 2 14.0
2020-Aug-11 22:00 204 1 14.0
2020-Aug-11 21:50 184 2 14.0
2020-Aug-11 21:40 191 2 14.0
2020-Aug-11 21:30 154 2 14.4
2020-Aug-11 21:20 059 2 14.6
2020-Aug-11 21:10 082 1 14.2
2020-Aug-11 21:00 234 1 14.7
2020-Aug-11 20:50 151 4 14.7
2020-Aug-11 20:40 354 1 15.6
2020-Aug-11 20:30 080 2 14.5
2020-Aug-11 20:20 021 3 15.4
2020-Aug-11 20:10 318 3 14.8
2020-Aug-11 20:00 290 3 15.3
2020-Aug-11 19:50 115 2 15.5
2020-Aug-11 19:40 198 1 14.9
2020-Aug-11 19:30 277 0 15.0
2020-Aug-11 19:20 176 2 14.1
2020-Aug-11 19:10 267 0 14.5
2020-Aug-11 19:00 208 2 13.7
2020-Aug-11 18:50 209 2 14.6
2020-Aug-11 18:40 260 0 13.5
2020-Aug-11 18:30 320 1 13.3
2020-Aug-11 18:20 300 4 12.9
2020-Aug-11 18:10 293 4 12.7
2020-Aug-11 18:00 290 6 12.7
2020-Aug-11 17:50 285 4 12.6
2020-Aug-11 17:40 291 6 12.3
2020-Aug-11 17:30 288 4 12.3
2020-Aug-11 17:20 289 4 12.1
2020-Aug-11 17:10 293 4 12.2
2020-Aug-11 17:00 290 4 11.8
2020-Aug-11 16:50 285 5 11.7
2020-Aug-11 16:40 294 4 11.6
2020-Aug-11 16:30 286 2 11.4
2020-Aug-11 16:20 288 4 11.0
2020-Aug-11 16:10 273 1 11.0
2020-Aug-11 16:00 287 3 10.8
2020-Aug-11 15:50 301 2 10.6
2020-Aug-11 15:40 311 1 10.6
2020-Aug-11 15:30 282 3 10.5
2020-Aug-11 15:20 295 4 10.4
2020-Aug-11 15:10 289 2 10.4
2020-Aug-11 15:00 298 1 10.3
2020-Aug-11 14:50 278 1 10.4
2020-Aug-11 14:40 302 0 10.3
2020-Aug-11 14:30 290 0 10.2
2020-Aug-11 14:20 213 0 10.3
2020-Aug-11 14:10 289 1 10.3
2020-Aug-11 14:00 206 0 10.2
2020-Aug-11 13:50 292 0 10.2
2020-Aug-11 13:40 290 0 10.1
2020-Aug-11 13:30 291 1 10.2
2020-Aug-11 13:20 340 0 10.1
2020-Aug-11 13:10 304 0 10.2
2020-Aug-11 13:00 296 1 10.1
2020-Aug-11 12:50 298 2 10.0
2020-Aug-11 12:40 347 1 10.0
2020-Aug-11 12:30 309 1 10.1
2020-Aug-11 12:20 310 0 10.1
2020-Aug-11 12:10 331 0 10.1
2020-Aug-11 12:00 250 0 10.2
2020-Aug-11 11:50 288 0 10.1
2020-Aug-11 11:40 032 0 10.1
2020-Aug-11 11:30 348 0 10.2
2020-Aug-11 11:20 344 0 10.3
2020-Aug-11 11:10 006 0 10.4
2020-Aug-11 11:00 326 0 10.4
2020-Aug-11 10:50 214 0 10.4
2020-Aug-11 10:40 336 0 10.5
2020-Aug-11 10:30 321 0 10.5
2020-Aug-11 10:20 015 0 10.6
2020-Aug-11 10:10 289 0 10.6
2020-Aug-11 10:00 331 0 10.7
2020-Aug-11 09:50 323 1 10.7
2020-Aug-11 09:40 356 0 10.8
2020-Aug-11 09:30 302 0 10.8
2020-Aug-11 09:20 312 0 10.8
2020-Aug-11 09:10 285 0 10.9
2020-Aug-11 09:00 073 0 10.9
2020-Aug-11 08:50 213 0 11.0
2020-Aug-11 08:40 206 1 11.0
2020-Aug-11 08:30 248 0 11.0
2020-Aug-11 08:20 220 1 11.1
2020-Aug-11 08:10 280 0 11.1
2020-Aug-11 08:00 297 0 11.3
2020-Aug-11 07:50 295 1 11.3
2020-Aug-11 07:40 297 1 11.3
2020-Aug-11 07:30 111 1 11.3
2020-Aug-11 07:20 007 0 11.4
2020-Aug-11 07:10 249 0 11.5
2020-Aug-11 07:00 289 1 11.4
2020-Aug-11 06:50 291 2 11.4
2020-Aug-11 06:40 254 2 11.5
2020-Aug-11 06:30 280 3 11.4
2020-Aug-11 06:20 287 3 11.4
2020-Aug-11 06:10 292 4 11.4
2020-Aug-11 06:00 294 4 11.4
2020-Aug-11 05:50 284 4 11.5
2020-Aug-11 05:40 293 5 11.5
2020-Aug-11 05:30 292 3 11.6
2020-Aug-11 05:20 285 1 11.8
2020-Aug-11 05:10 303 1 11.9
2020-Aug-11 05:00 230 2 11.9
2020-Aug-11 04:50 193 2 11.9
2020-Aug-11 04:40 228 1 12.0
2020-Aug-11 04:30 204 2 12.1
2020-Aug-11 04:20 202 2 12.2
2020-Aug-11 04:10 219 2 12.2
2020-Aug-11 04:00 222 2 12.3
2020-Aug-11 03:50 190 0 12.4
2020-Aug-11 03:40 247 0 12.5
2020-Aug-11 03:30 291 3 12.6
2020-Aug-11 03:20 292 3 12.7
2020-Aug-11 03:10 291 3 12.7
2020-Aug-11 03:00 287 1 12.7
2020-Aug-11 02:50 276 2 12.8
2020-Aug-11 02:40 287 3 12.7
2020-Aug-11 02:30 297 4 12.7
2020-Aug-11 02:20 292 5 12.6
2020-Aug-11 02:10 293 5 12.7
2020-Aug-11 02:00 287 4 12.7
2020-Aug-11 01:50 299 3 12.8
2020-Aug-11 01:40 296 3 12.9
2020-Aug-11 01:30 291 3 12.8
2020-Aug-11 01:20 289 2 12.8
2020-Aug-11 01:10 291 8 12.8
2020-Aug-11 01:00 329 2 12.8
2020-Aug-11 00:50 291 5 13.0
2020-Aug-11 00:40 293 5 13.2
2020-Aug-11 00:30 291 3 13.3
2020-Aug-11 00:20 314 1 13.1
2020-Aug-11 00:10 314 1 13.0
2020-Aug-11 00:00 299 6 13.2
2020-Aug-10 23:50 294 4 13.4
2020-Aug-10 23:40 295 2 13.5
2020-Aug-10 23:30 258 0 13.5
2020-Aug-10 23:20 236 1 13.3
2020-Aug-10 23:10 289 2 13.8
2020-Aug-10 23:00 298 2 14.2
2020-Aug-10 22:50 064 0 14.1
2020-Aug-10 22:40 291 0 13.8
2020-Aug-10 22:30 222 5 13.6
2020-Aug-10 22:20 229 2 13.6
2020-Aug-10 22:10 208 5 13.4
2020-Aug-10 22:00 162 3 13.0
2020-Aug-10 21:50 181 2 12.9
2020-Aug-10 21:40 212 4 12.9
2020-Aug-10 21:30 205 3 13.1
2020-Aug-10 21:20 202 3 13.3
2020-Aug-10 21:10 180 7 13.4
2020-Aug-10 21:00 193 4 13.3
2020-Aug-10 20:50 136 6 13.3
2020-Aug-10 20:40 152 5 13.5
2020-Aug-10 20:30 131 7 13.6
2020-Aug-10 20:20 119 9 13.4
2020-Aug-10 20:10 122 8 13.4
2020-Aug-10 20:00 124 3 13.4
2020-Aug-10 19:50 118 4 13.3
2020-Aug-10 19:40 110 4 13.2
2020-Aug-10 19:30 141 4 13.1
2020-Aug-10 19:20 131 4 12.9
2020-Aug-10 19:10 111 4 12.8
2020-Aug-10 19:00 135 4 12.6
2020-Aug-10 18:50 136 4 12.5
2020-Aug-10 18:40 103 2 12.5
2020-Aug-10 18:30 106 4 12.5
2020-Aug-10 18:20 112 4 12.5
2020-Aug-10 18:10 152 2 12.5
2020-Aug-10 18:00 187 3 12.5
2020-Aug-10 17:50 180 4 12.5
2020-Aug-10 17:40 174 2 12.4
2020-Aug-10 17:30 181 3 12.3
2020-Aug-10 17:20 181 5 12.4
2020-Aug-10 17:10 201 6 12.6
2020-Aug-10 17:00 187 3 12.3
2020-Aug-10 16:50 179 6 12.1
2020-Aug-10 16:40 158 4 12.1
2020-Aug-10 16:30 174 6 12.2
2020-Aug-10 16:20 207 2 12.2
2020-Aug-10 16:10 187 4 12.1
2020-Aug-10 16:00 208 2 11.8
2020-Aug-10 15:50 201 2 11.6
2020-Aug-10 15:40 181 1 11.7
2020-Aug-10 15:30 301 0 11.8
2020-Aug-10 15:20 200 2 11.9
2020-Aug-10 15:10 317 1 12.0
2020-Aug-10 15:00 203 0 12.0
2020-Aug-10 14:50 258 0 11.9
2020-Aug-10 14:40 277 0 12.0
2020-Aug-10 13:50 086 1 12.1
2020-Aug-10 13:40 170 5 11.8
2020-Aug-10 13:20 171 6 11.8
2020-Aug-10 13:10 145 6 11.7
2020-Aug-10 13:00 154 1 11.8
2020-Aug-10 12:50 116 3 11.8
2020-Aug-10 12:40 139 5 11.8
2020-Aug-10 12:30 122 3 11.7
2020-Aug-10 12:20 132 3 11.7
2020-Aug-10 12:10 094 3 11.7
2020-Aug-10 12:00 018 1 11.8
2020-Aug-10 11:50 122 4 11.8
2020-Aug-10 11:40 117 3 11.9
2020-Aug-10 11:30 107 2 11.9
2020-Aug-10 11:20 111 2 11.9
2020-Aug-10 11:10 131 2 12.0
2020-Aug-10 11:00 154 3 12.0
2020-Aug-10 10:50 146 2 12.0
2020-Aug-10 10:40 126 2 12.0
2020-Aug-10 10:30 114 4 12.0
2020-Aug-10 10:20 133 3 12.1
2020-Aug-10 10:10 146 4 12.1
2020-Aug-10 10:00 145 4 12.2
2020-Aug-10 09:50 139 5 12.2
2020-Aug-10 09:40 142 5 12.2
2020-Aug-10 09:30 133 4 12.2
2020-Aug-10 09:20 144 8 12.2
2020-Aug-10 09:10 122 3 12.3
2020-Aug-10 09:00 140 5 12.1
2020-Aug-10 08:50 164 3 12.2
2020-Aug-10 08:40 156 5 12.3
2020-Aug-10 08:30 175 6 12.4
2020-Aug-10 08:20 209 1 12.7
2020-Aug-10 08:10 203 2 12.9
2020-Aug-10 08:00 149 4 13.0
2020-Aug-10 07:50 180 8 13.1
2020-Aug-10 07:40 150 3 12.9
2020-Aug-10 07:30 182 8 13.0
2020-Aug-10 07:20 147 4 12.8
2020-Aug-10 07:10 175 4 13.0
2020-Aug-10 07:00 181 6 13.2
2020-Aug-10 06:50 184 10 13.0
2020-Aug-10 06:40 177 5 13.2
2020-Aug-10 06:30 190 10 13.2
2020-Aug-10 06:20 166 6 13.1
2020-Aug-10 06:10 179 5 13.3
2020-Aug-10 06:00 157 9 13.4